Regional Weather Roundup
Issued by NWS

Home | Current Version | Previous Version | Text Only | Print | Product List | Glossary Off
Versions: 1 2 3 4 5 6 7 8 9 10 11 12 13 14 15 16 17 18 19 20 21 22 23 24 25 26 27 28 29 30 31 32 33 34 35 36 37 38 39 40 41 42 43 44 45 46 47 48 49 50

000
ASUS43 KMPX 292010
RWRMN
WEATHER ROUNDUP FOR MINNESOTA
NATIONAL WEATHER SERVICE TWIN CITIES/CHANHASSEN MN
300 PM CDT WED OCT 29 2014


NOTE: "FAIR" INDICATES FEW OR NO CLOUDS BELOW 12,000 FEET WITH NO
SIGNIFICANT WEATHER AND/OR OBSTRUCTIONS TO VISIBILITY. N/A MEANS
CURRENT SKY AND/OR WEATHER CONDITIONS ARE NOT AVAILABLE.

MNZ060>063-068>070-292100-
   Twin Cities Metro

CITY           SKY/WX    TMP DP  RH WIND       PRES   REMARKS
TWIN CITIES    CLOUDY    41  31  67 W7        30.14S
ST PAUL        CLOUDY    42  32  67 W7        30.14F
CRYSTAL        CLOUDY    42  31  64 SW6       30.12F
BLAINE         CLOUDY    43  34  70 SW8       30.13F
LAKEVILLE      CLOUDY    41  30  65 NW8       30.13F
EDEN PRAIRIE   CLOUDY    41  32  70 W5        30.12F
SOUTH ST PAUL  CLOUDY    43  31  63 NW6       30.13S
LAKE ELMO      CLOUDY    43  32  65 NW7       30.13S
$$
MNZ001>005-007-008-013>017-022>024-027-028-292100-
   Northwest Minnesota

CITY           SKY/WX    TMP DP  RH WIND       PRES   REMARKS
BEMIDJI        CLOUDY    35  31  85 W6        30.07F WCI  30
HALLOCK          N/A     39  28  65 SW9       30.05F
ROSEAU         CLOUDY    37  32  81 W7        30.05F
WARROAD        CLOUDY    37  34  87 W9        30.06S
THIEF RVR FALL CLOUDY    36  28  75 SW6       30.07F
CROOKSTON      PTSUNNY   39  28  65 SW6       30.07F
FOSSTON        CLOUDY    36  30  80 SW9       30.08F
DETROIT LAKES  CLOUDY    36  30  80 SW6       30.08F
MOORHEAD       MOSUNNY   43  30  61 S8        30.08F
PARK RAPIDS    CLOUDY    37  30  75 W7        30.07F
MAHNOMEN       CLOUDY    36  29  77 S7        30.07F
$$
MNZ006-009>011-018-025>026-292100-
   North Central Minnesota

CITY           SKY/WX    TMP DP  RH WIND       PRES   REMARKS
BAUDETTE       CLOUDY    37  33  85 SW8       30.05F
FLAG ISLAND    CLOUDY    37  34  87 CALM      30.04S
INTL FALLS     CLOUDY    38  35  89 W6        30.04S
WASKISH        CLOUDY    37  36  93 SW6       30.06F
BIG FORK       DRIZZLE   37  34  87 W3        30.07S
LONGVILLE      CLOUDY    37  34  87 SW5       30.08S
GRAND RAPIDS   CLOUDY    36  32  87 SW3       30.06F
CRANE LAKE     CLOUDY    37  36  93 CALM      30.06F FOG
ORR            CLOUDY    39  34  81 CALM      30.02F
COOK           CLOUDY    37  36  93 W5        30.05F
WALKER         CLOUDY    35  31  85 W5        30.07F WCI  31
$$
MNZ012-019>021-037-292100-
   Northeast Minnesota

CITY           SKY/WX    TMP DP  RH WIND       PRES   REMARKS
DULUTH         CLOUDY    41  33  73 W10       30.05F
ELY            CLOUDY    37  34  87 W8        30.04S
HIBBING        CLOUDY    40  32  73 SW6       30.05F
EVELETH        CLOUDY    39  34  81 CALM      30.06F
DULUTH HARBOR  CLOUDY    45  36  70 W7        30.09F
TWO HARBORS    CLOUDY    45 N/A N/A W9        30.04F
SILVER BAY     MOSUNNY   45  36  70 W7        30.03F
GRAND MARAIS     N/A     45  33  63 VRB6      30.04S
G MARAIS ARPRT CLOUDY    37  28  70 W6        30.02S
$$
MNZ029>031-032-039>041-046>048-054>057-064-292100-
   West Central Minnesota

CITY           SKY/WX    TMP DP  RH WIND       PRES   REMARKS
FERGUS FALLS   PTSUNNY   39  27  60 S3        30.09F
WHEATON        SUNNY     39  28  65 SE7       30.10F
MORRIS         MOSUNNY   39  30  70 W3        30.10S
ALEXANDRIA     PTSUNNY   38  30  73 S6        30.09F
ELBOW LAKE     PTSUNNY   37  29  72 SW3       30.09F
WADENA         CLOUDY    36  30  80 CALM      30.08S
GLENWOOD       SUNNY     39  30  70 CALM      30.09F
APPLETON       SUNNY     45  28  53 SW5       30.10F
BENSON         MOSUNNY   41  30  65 SW6       30.10F
ORTONVILLE     SUNNY     45  30  57 S6        30.09F
MADISON        SUNNY     48  34  57 S6        30.09F
WILLMAR        CLOUDY    39  30  70 W6        30.12F
$$
MNZ033>034-036-042>043-049>051-058-059-292100-
   Central Minnesota

CITY           SKY/WX    TMP DP  RH WIND       PRES   REMARKS
ST CLOUD       CLOUDY    42  32  67 W6        30.11F
SAUK CENTRE    CLOUDY    37  30  75 W3        30.09F
PAYNESVILLE    CLOUDY    36  30  78 S3        30.11F
AITKIN         CLOUDY    39  32  75 CALM      30.07F
PINE RIVER     CLOUDY    37  32  81 SW6       30.11S
BRAINERD       CLOUDY    37  31  78 W5        30.09F
STAPLES        CLOUDY    37  30  75 SW3       30.08F
LONG PRAIRIE   CLOUDY    36  32  87 CALM      30.09F
LITTLE FALLS   CLOUDY    37  32  81 W5        30.10F
LITCHFIELD     CLOUDY    41  34  75 W8        30.12F
BUFFALO        CLOUDY    40  32  71 W5        30.13F
MAPLE LAKE     CLOUDY    41  33  73 W6        30.13F
$$
MNZ037-044-045-052-053-292100-
   East Central Minnesota

CITY           SKY/WX    TMP DP  RH WIND       PRES   REMARKS
PRINCETON      CLOUDY    41  32  70 W6        30.12F
MORA           CLOUDY    37  32  81 SW5       30.12F
CAMBRIDGE      CLOUDY    41  30  65 W3        30.10F
RUSH CITY      CLOUDY    41  32  71 W3        30.11F
MOOSE LAKE     CLOUDY    39  32  75 NW6       30.07F
HINCKLEY       CLOUDY    41  34  75 SW8       30.10F
CLOQUET        CLOUDY    41  32  70 W7        30.07S
MCGREGOR       CLOUDY    37  32  81 SW6       30.09S
$$
MNZ071>073-080-081-089-090-097-098-292100-
   Southwest Minnesota

CITY           SKY/WX    TMP DP  RH WIND       PRES   REMARKS
MONTEVIDEO     SUNNY     46  34  61 S6        30.11F
GRANITE FALLS  SUNNY     43  31  62 CALM      30.13F
CANBY          SUNNY     46  32  58 CALM      30.09F
MARSHALL       SUNNY     46  28  49 SW5       30.10F
REDWOOD FALLS  SUNNY     44  31  60 VRB3      30.12F
OLIVIA         MOSUNNY   43  32  65 CALM      30.11F
PIPESTONE      SUNNY     48  30  49 SW7       30.08F
WINDOM         SUNNY     50  30  46 CALM      30.11F
WORTHINGTON    SUNNY     48  28  46 SW7       30.11F
JACKSON        SUNNY     50  30  46 W5        30.12F
TRACY          SUNNY     49  32  52 CALM      30.10F
SLAYTON        SUNNY     47  29  48 SW8       30.11F
$$
MNZ065>067-074>077-082>085-091>093-292100-
   South Central Minnesota

CITY           SKY/WX    TMP DP  RH WIND       PRES   REMARKS
MANKATO        MOSUNNY   41  28  60 NW6       30.14F
NEW ULM        SUNNY     45  32  61 NW3       30.13F
ST JAMES       SUNNY     46  32  57 CALM      30.14F
FAIRMONT       SUNNY     48  28  46 W3        30.13F
GLENCOE        CLOUDY    42  33  71 W6        30.13F
FARIBAULT      CLOUDY    43  32  65 W5        30.14S
OWATONNA       SUNNY     43  30  61 SW7       30.13F
WASECA         MOSUNNY   41  28  60 W3        30.15F
ALBERT LEA     SUNNY     45  32  61 W6        30.13F
$$
MNZ078>079-086>088-094>096-292100-
   Southeast Minnesota

CITY           SKY/WX    TMP DP  RH WIND       PRES   REMARKS
ROCHESTER      SUNNY     44  32  62 W8        30.13S
RED WING       CLOUDY    46  30  53 W5        30.12F
STANTON        CLOUDY    43  32  64 W5        30.12F
DODGE CENTER   CLOUDY    41  32  70 W6        30.13S
WINONA         MOSUNNY   48  34  57 NW6       30.12F
AUSTIN         PTSUNNY   45  34  65 W8        30.13F
PRESTON        MOSUNNY   41  32  68 W7        30.13F
$$
ABBREVIATIONS USED IN REMARKS
   TC - TEMPERATURES IN CELSIUS
  WCI - WIND CHILL INDEX
   HX - HEAT INDEX
  VSB - VISIBILITY
$$



USA.gov is the U.S. government's official web portal to all federal, state and local government web resources and services.